Hourly Data Report for July 07, 2017

PITT MEADOWS CS
BRITISH COLUMBIA

49°12'29.964" N
122°41'24.076" W
5.00 m
1106178
71775
WMM

Download Data

Hourly Data (July 2017)
Hourly Data Report for July 7, 2017
TIME
LST
Temp Definition
°C
Dew Point Definition
°C
Rel Hum Definition
%
Precip. Amount Definition
mm

Wind Dir Definition
10's deg

Wind Spd Definition
km/h
Visibility Definition
km
Stn Press Definition
kPa
Hmdx Definition


Wind Chill Definition


Weather Definition


00:00 17.7 13.3 75 0.0 10 3   101.69     LegendNANA
01:00 16.6 12.9 79 0.0 8 3   101.67     LegendNANA
02:00 14.7 11.7 82 0.0 8 2   101.66     LegendNANA
03:00 14.2 11.2 82 0.0   0   101.68     LegendNANA
04:00 14.2 12.8 91 0.0 13 2   101.71     LegendNANA
05:00 14.9 12.0 83 0.0 9 7   101.76     LegendNANA
06:00 16.8 10.2 65 0.0 11 4   101.89     LegendNANA
07:00 18.3 8.8 54 0.0 13 7   102.00     LegendNANA
08:00 19.3 9.1 52 0.0 10 11   102.08     LegendNANA
09:00 20.6 10.2 52 0.0 13 9   102.10     LegendNANA
10:00 20.8 11.1 54 0.0 13 13   102.15     LegendNANA
11:00 21.1 11.6 55 0.0 14 9   102.21     LegendNANA
12:00 22.4 11.7 51 0.0 13 9   102.23 25   LegendNANA
13:00 22.7 11.4 49 0.0 21 8   102.27 25   LegendNANA
14:00 22.6 11.3 49 0.0 15 12   102.27 25   LegendNANA
15:00 22.6 10.3 46 0.0 10 10   102.27     LegendNANA
16:00 23.1 10.5 45 0.0 12 7   102.22 25   LegendNANA
17:00 23.0 11.1 47 0.0 12 8   102.18 25   LegendNANA
18:00 21.7 10.8 50 0.0 13 11   102.16     LegendNANA
19:00 20.3 9.3 49 0.0 13 9   102.16     LegendNANA
20:00 19.2 9.3 53 0.0 11 8   102.12     LegendNANA
21:00 17.2 9.5 61 0.0 11 7   102.15     LegendNANA
22:00 16.7 9.6 63 0.0 7 8   102.13     LegendNANA
23:00 16.3 9.8 65 0.0 11 2   102.13     LegendNANA

Notes on Data Quality.

Legend

  • E = Estimated
  • M = Missing
  • NA = Not Available*
  • [empty] = Indicates an unobserved value
Date modified: